Temperature
12 12 11 11 11 11 11 11 11 11 11 11 11 11 11 11 11 11 11 11 11 11 11 11 11 11 11 11 11 11 11 11 11 11 11 10 10 10 10 10 10 10 10
11 11 11 11 11 11 11 11 11 11 11 11 11 11 11 11 11 11 11 11 11 11 11 11 11 11 11 11 11 11 11 11 11 10 10 10 10 10 10 10 10 10 10
11 11 11 11 11 11 11 10 11 10 10 10 10 10 10 10 10 10 10 10 11 10 10 10 10 10 10 11 10 10 10 10 10 10 10 10 10 10 9 9 9 9 10
11 10 10 10 10 10 10 10 10 10 10 10 10 10 10 10 10 10 10 10 10 10 10 10 10 10 10 10 10 10 10 10 10 10 10 10 9 9 9 9 9 9 9
10 10 10 10 10 10 10 10 10 10 10 9 9 9 9 9 9 9 9 9 9 9 9 9 10 10 10 10 10 9 9 9 9 9 9 9 9 9 9 9 9 9 9
10 10 10 10 10 10 10 9 9 9 9 9 9 9 9 9 9 9 9 9 9 9 9 9 9 9 9 9 9 9 9 9 9 9 9 9 9 9 9 9 8 8 8
9 9 9 9 9 9 9 9 9 9 8 8 9 8 8 8 8 8 8 8 8 8 8 8 8 9 9 9 8 8 8 8 8 8 8 8 8 8 8 8 8 8 8
9 9 9 9 9 9 9 9 9 8 8 8 8 8 7 7 7 8 8 8 8 8 8 8 8 8 8 8 8 8 8 8 8 8 8 8 8 8 8 7 7 7 7
8 9 9 8 9 9 9 9 8 8 8 8 8 7 7 7 7 7 7 7 7 7 7 7 7 7 8 8 8 7 8 7 7 7 7 7 7 7 7 7 7 7 7
8 8 8 8 8 8 8 8 8 8 8 8 7 7 7 7 7 6 6 7 7 7 7 7 7 7 7 7 7 7 7 7 7 7 7 7 7 7 7 6 6 6 7
8 8 8 8 8 8 8 8 8 8 8 7 7 7 7 7 7 7 6 6 6 6 6 6 6 6 6 6 6 6 6 6 6 6 6 6 6 6 6 6 6 6 6
7 7 7 7 7 7 7 7 7 7 7 7 7 7 7 7 7 7 6 6 6 6 6 6 6 6 6 6 6 6 6 6 6 6 6 6 6 6 6 6 6 6 6
7 7 7 7 7 7 7 7 7 7 7 7 7 7 6 6 6 6 6 6 5 5 5 6 6 5 5 5 5 5 5 6 5 5 5 5 5 5 5 6 6 6 5
6 6 6 6 6 6 6 6 6 6 6 7 6 6 6 6 6 6 6 5 5 4 5 5 5 5 5 5 5 5 5 5 5 5 5 5 5 5 5 5 5 5 5
5 6 6 6 6 6 6 6 6 6 6 6 6 6 6 6 6 5 5 5 5 4 4 5 5 5 5 4 4 4 4 4 4 4 4 4 5 5 5 5 5 4 4
5 5 5 5 5 5 5 5 6 6 6 6 6 6 5 5 5 5 5 5 5 4 4 4 4 4 4 4 4 4 4 4 4 4 4 4 4 4 4 4 4 4 4
4 4 4 5 5 5 5 5 5 5 5 5 5 5 5 5 5 5 5 5 4 4 4 4 4 4 3 3 3 4 3 3 3 3 3 4 4 4 4 3 3 3 3
4 4 4 4 4 4 4 4 5 4 5 5 5 5 5 5 4 4 4 4 4 4 4 4 3 3 3 3 3 3 3 3 3 3 3 3 3 3 3 3 3 3 2
3 3 3 3 4 4 4 4 4 4 4 4 4 4 4 4 4 4 4 4 4 3 3 3 3 3 3 2 2 2 2 2 3 3 3 2 2 2 2 2 2 2 2
3 3 3 3 3 3 3 3 3 3 4 4 4 4 4 4 3 4 3 3 3 3 3 3 2 2 2 2 2 2 2 2 2 2 2 2 2 2 2 2 2 2 2
2 2 2 2 2 2 3 3 3 3 3 3 3 3 3 3 3 3 3 3 3 2 2 2 2 2 2 2 2 2 1 1 2 2 2 2 2 2 2 1 1 1 1
1 1 2 2 2 2 2 2 2 2 2 3 3 3 3 3 3 3 2 2 2 2 2 2 2 1 2 2 2 1 1 1 1 1 1 1 1 1 1 1 1 1 1
1 1 1 1 1 2 2 2 2 2 2 2 2 2 2 2 2 2 2 2 2 2 2 2 2 2 2 2 1 1 1 1 1 1 0 0 1 1 1 0 0 0 0
-0 0 0 0 0 1 1 1 1 1 1 1 1 1 2 2 2 2 1 1 1 1 1 1 1 1 1 1 1 1 1 0 0 0 -0 -0 0 -0 -0 -0 -0 -0 -0
-1 -1 -0 -0 -0 0 0 0 0 1 1 1 1 1 1 1 1 1 1 1 1 1 1 1 1 1 0 0 0 -0 -0 -0 -0 -0 -0 -1 -1 -1 -1 -1 -1 -1 -1
-1 -1 -1 -1 -1 -1 -0 -0 -0 -0 -0 -0 0 0 0 0 0 0 0 0 0 0 0 0 0 0 0 -0 -0 -0 -0 -1 -1 -1 -1 -1 -1 -2 -2 -1 -1 -1 -2
Wind_Speed
3 3 3 3 3 4 4 3 3 3 3 3 4 4 4 4 5 4 3 4 4 3 4 6 6 7 7 7 7 8 8 8 8 8 7 7 6 6 6 6 6 6 6
4 3 3 3 3 4 5 4 3 3 3 3 3 4 4 4 5 5 4 4 4 4 3 4 6 6 6 6 7 7 7 7 7 6 6 6 6 5 5 5 5 6 5
5 4 3 2 3 4 5 4 4 4 3 3 3 3 3 4 4 4 4 4 4 4 3 2 4 5 6 6 6 6 6 6 6 6 5 5 5 5 5 5 4 5 5
7 5 3 2 4 4 4 3 3 3 3 3 2 2 3 3 4 4 4 3 3 3 3 2 3 4 5 6 6 6 6 6 6 5 5 5 5 4 4 4 4 4 4
6 5 3 3 4 4 3 3 3 3 3 3 3 3 2 2 2 3 3 3 4 4 4 3 3 3 3 5 5 5 5 5 4 4 4 4 4 4 4 3 4 3 3
6 5 4 3 4 3 3 3 3 3 3 4 4 3 3 3 3 3 3 3 4 4 4 5 4 4 3 3 4 5 5 5 4 4 3 3 3 3 3 3 3 3 3
5 5 4 3 4 3 4 4 4 4 3 3 3 3 3 4 4 3 3 3 3 4 4 5 5 4 4 3 3 3 3 4 4 4 3 3 2 3 3 3 3 3 3
5 5 5 3 3 3 4 4 4 3 2 2 3 3 1 3 3 3 2 2 2 3 3 3 3 4 4 3 3 2 2 3 3 3 3 3 3 3 4 3 3 3 3
4 4 5 4 4 4 4 5 5 5 4 2 2 3 3 2 1 2 2 1 1 2 2 2 2 2 2 2 2 2 1 1 2 3 4 4 3 3 4 3 2 3 2
4 5 5 5 4 3 4 5 5 4 6 4 1 1 2 3 3 0 2 2 1 1 1 1 1 0 1 2 1 1 1 2 3 4 4 4 2 3 3 3 3 3 3
4 5 5 5 4 3 4 4 4 4 4 4 4 2 2 1 2 2 2 1 2 1 1 1 0 1 1 2 2 2 1 2 4 4 4 4 3 3 2 3 4 4 4
2 4 5 4 4 4 4 4 4 5 5 4 4 3 3 3 2 2 2 2 2 2 2 1 1 2 2 2 2 2 3 3 3 3 4 4 4 3 2 3 4 5 4
2 4 4 4 4 4 5 5 4 4 5 5 5 4 3 3 3 2 2 2 1 2 2 2 2 2 3 2 2 2 3 3 3 4 4 3 3 2 3 4 4 5 5
4 3 3 4 5 5 5 5 4 4 4 5 5 5 3 3 3 3 3 3 1 2 2 3 1 2 3 3 2 2 3 4 4 5 4 4 4 3 3 4 4 5 5
3 3 3 3 4 5 5 4 4 4 4 5 5 5 4 3 3 3 3 4 4 3 4 4 2 2 3 3 3 2 3 3 4 4 4 4 4 4 4 4 4 5 4
3 3 3 3 3 4 4 4 4 4 5 4 4 6 5 3 3 3 3 3 3 4 4 3 3 2 2 2 3 2 3 3 3 3 4 3 3 3 4 4 3 4 4
3 3 3 3 4 4 4 4 4 5 5 5 4 6 6 5 4 4 4 3 3 3 4 3 1 1 1 1 2 2 3 3 3 4 4 4 4 4 4 4 4 4 5
3 3 3 3 3 4 4 5 5 5 6 7 6 5 6 5 5 4 4 4 4 3 4 4 2 1 2 2 1 1 2 3 3 4 5 5 5 5 5 5 5 5 6
2 2 2 3 4 4 4 5 5 5 6 6 6 6 6 7 6 5 5 5 4 3 3 4 3 2 1 2 1 1 1 2 3 4 5 5 5 5 6 6 6 6 7
2 2 3 3 3 3 4 4 4 4 4 5 5 5 6 7 8 7 6 6 5 4 4 4 3 2 2 2 2 1 1 1 2 3 4 4 4 5 6 6 7 7 7
3 3 3 3 3 3 4 4 4 4 4 4 4 4 5 6 7 7 6 6 6 5 5 4 4 3 2 3 3 3 3 1 2 2 2 2 2 3 4 5 7 7 7
2 2 3 3 3 3 5 6 4 4 4 4 4 4 4 4 5 7 8 8 8 7 7 6 4 5 5 4 3 3 2 1 3 2 1 2 1 2 4 5 6 7 8
2 2 3 3 4 4 6 6 6 4 4 4 4 4 3 4 4 4 5 6 7 9 9 7 7 7 6 6 5 4 4 3 4 2 1 3 2 3 4 6 7 8 8
2 2 3 3 3 4 6 6 5 3 3 3 4 4 5 4 4 4 5 4 4 5 6 6 6 6 6 5 6 5 4 2 2 2 2 3 2 3 4 5 7 7 8
3 3 3 3 3 4 5 5 4 2 3 3 3 4 4 5 6 6 4 4 3 3 3 4 5 5 6 7 6 3 3 2 3 2 1 2 2 3 3 3 5 6 6
3 3 3 3 3 4 5 5 4 3 3 3 2 3 5 6 7 6 4 5 5 4 3 3 2 2 3 4 6 5 5 4 2 2 2 2 1 1 2 3 3 4 5
Wind_Direction
132 127 123 126 127 126 125 118 108 100 96 93 98 99 87 82 82 83 78 81 89 115 146 147 145 144 146 151 147 140 137 133 127 122 120 122 120 122 119 112 112 109 105
131 131 131 120 124 132 132 125 118 114 107 99 91 93 94 89 83 76 77 79 78 80 112 152 159 152 148 145 145 147 146 142 137 131 129 131 130 124 122 124 122 121 117
144 134 138 141 138 136 126 112 103 98 100 96 91 88 92 86 85 78 77 81 81 72 77 124 159 162 162 154 147 147 148 145 144 143 141 135 129 129 130 128 128 132 131
152 141 141 155 148 135 126 127 124 112 97 94 87 72 75 80 82 87 83 83 88 79 65 81 118 144 158 153 152 151 150 149 152 151 149 145 139 135 141 141 138 140 131
156 146 147 148 144 130 128 142 130 125 120 109 93 71 59 66 69 84 74 78 87 86 78 70 87 113 132 147 152 151 149 150 156 156 157 159 156 157 156 162 161 156 150
160 151 142 142 136 139 139 134 130 115 122 121 97 65 44 39 50 58 63 77 82 81 80 78 77 86 93 134 156 158 161 158 157 156 156 161 166 176 176 178 184 186 173
158 153 148 142 139 152 162 150 132 124 112 117 93 62 32 36 46 41 46 63 64 63 68 75 87 87 88 96 133 161 172 173 171 169 169 170 187 202 204 203 198 198 194
161 162 157 160 155 152 156 152 139 135 142 140 122 115 57 7 8 17 24 54 56 64 65 66 81 87 87 95 115 141 185 193 197 196 195 194 205 222 222 225 217 214 215
171 163 168 168 168 164 172 173 164 155 162 179 159 144 148 196 262 344 0 25 44 55 51 51 68 71 92 102 116 138 173 202 214 212 210 206 204 224 223 223 229 225 218
191 180 172 172 176 171 178 185 178 170 164 172 183 130 147 153 156 199 325 340 356 6 348 27 70 86 135 130 126 131 219 247 239 229 220 213 217 241 245 241 248 251 239
207 197 184 177 179 179 183 181 180 176 173 174 173 157 118 102 129 158 214 273 325 310 297 289 247 253 239 189 186 189 225 257 247 237 227 220 228 245 252 255 256 263 260
230 211 195 189 188 189 190 188 185 186 183 179 176 169 164 165 172 163 191 221 260 290 301 279 259 241 257 238 217 216 234 245 248 236 244 242 243 256 273 279 266 258 260
231 228 203 196 198 200 198 188 183 190 187 183 186 188 185 186 170 164 168 194 242 278 288 287 265 243 253 252 240 234 226 225 246 247 247 250 250 260 268 275 275 272 257
225 226 213 204 204 202 201 193 190 197 194 193 195 190 189 195 178 173 169 166 206 274 275 265 288 241 240 239 249 256 243 237 243 244 247 250 255 258 262 267 270 281 273
226 222 220 207 205 205 203 195 201 203 196 200 198 196 195 197 188 185 175 173 175 215 245 246 244 243 236 244 256 250 249 251 250 248 250 247 242 249 250 256 270 266 265
222 210 218 213 208 206 204 202 205 203 195 206 203 196 200 198 188 187 187 189 185 195 229 238 235 243 223 250 263 254 251 268 266 262 252 241 239 239 239 246 258 270 274
218 215 217 219 213 213 209 205 207 201 201 209 210 202 204 195 194 195 189 189 190 184 220 253 249 228 199 225 262 257 257 252 256 256 253 246 242 243 241 247 256 267 275
229 220 213 216 216 215 211 208 211 210 207 209 211 206 206 199 199 199 195 197 198 198 198 224 241 228 226 219 227 254 267 259 253 253 255 254 251 247 243 246 255 265 276
238 228 213 217 224 222 215 212 209 212 213 211 207 206 208 196 203 201 199 202 202 206 195 196 223 226 233 216 225 274 279 276 266 263 258 256 256 252 250 252 258 264 271
235 231 230 229 229 227 220 213 206 209 212 211 207 208 207 204 202 198 202 202 199 195 187 189 203 211 217 211 191 216 268 288 290 282 265 259 260 266 266 265 266 269 273
249 238 234 233 231 227 222 214 212 209 207 209 209 210 214 214 211 205 206 197 191 194 191 194 201 205 209 199 211 211 230 267 299 281 275 275 265 274 282 278 272 273 280
259 241 237 236 234 240 241 238 228 208 206 204 209 211 211 213 219 216 215 211 204 200 198 201 211 209 216 214 209 207 205 234 272 258 230 280 259 266 273 275 275 279 284
270 255 241 237 236 238 239 238 233 217 206 210 207 206 218 217 220 209 212 215 217 217 215 210 207 215 215 210 198 207 215 229 247 238 236 272 281 273 279 279 277 279 285
284 275 258 243 239 240 239 235 228 212 203 213 210 205 208 213 214 203 195 199 210 219 220 216 213 217 215 202 199 207 215 227 277 276 214 248 268 274 291 283 277 280 288
294 285 272 250 240 241 235 231 223 191 200 221 222 213 207 208 212 207 194 190 199 217 211 197 201 203 206 203 188 172 185 203 258 265 222 215 253 276 284 283 278 282 290
294 295 287 269 250 241 232 227 221 199 199 211 219 221 223 219 212 207 198 189 197 209 182 164 162 171 174 188 194 193 193 198 230 247 218 190 225 267 285 281 285 295 299
Height
1531 1532 1533 1534 1535 1536 1537 1538 1539 1540 1541 1542 1543 1544 1545 1546 1547 1547 1548 1549 1550 1550 1551 1552 1552 1553 1554 1554 1555 1556 1556 1557 1558 1558 1559 1559 1560 1560 1560 1560 1560 1561 1561
1529 1530 1531 1532 1533 1534 1535 1536 1537 1538 1539 1540 1541 1542 1544 1544 1545 1546 1547 1548 1548 1549 1550 1550 1551 1552 1552 1553 1554 1554 1555 1556 1556 1557 1558 1558 1559 1559 1559 1559 1560 1560 1560
1527 1528 1529 1530 1531 1532 1533 1534 1536 1537 1538 1539 1540 1541 1542 1543 1544 1544 1545 1546 1547 1547 1548 1549 1549 1550 1551 1551 1552 1553 1553 1554 1555 1556 1557 1557 1558 1558 1558 1558 1559 1559 1559
1525 1526 1527 1528 1529 1530 1531 1532 1533 1535 1536 1537 1538 1539 1540 1541 1542 1543 1544 1544 1545 1546 1546 1547 1548 1548 1549 1549 1550 1551 1552 1552 1553 1554 1555 1556 1556 1556 1557 1557 1557 1557 1558
1522 1523 1524 1526 1527 1528 1529 1530 1531 1533 1534 1535 1537 1538 1539 1539 1540 1541 1542 1543 1543 1544 1545 1545 1546 1546 1547 1547 1548 1549 1550 1550 1551 1552 1553 1554 1554 1555 1555 1555 1556 1556 1556
1520 1521 1522 1523 1524 1526 1527 1528 1529 1531 1532 1534 1535 1536 1537 1538 1538 1539 1540 1541 1541 1542 1543 1543 1544 1544 1545 1545 1546 1547 1548 1548 1549 1550 1551 1551 1552 1552 1553 1553 1554 1554 1554
1518 1519 1520 1521 1522 1523 1525 1526 1527 1528 1530 1531 1533 1534 1535 1536 1537 1538 1538 1539 1540 1540 1541 1541 1542 1542 1543 1543 1544 1545 1545 1546 1547 1548 1548 1549 1549 1550 1550 1551 1551 1551 1552
1515 1516 1517 1518 1519 1521 1522 1523 1525 1526 1528 1529 1530 1532 1533 1536 1535 1536 1537 1537 1538 1538 1539 1539 1540 1540 1541 1541 1542 1542 1543 1544 1544 1545 1545 1546 1546 1547 1547 1548 1548 1549 1549
1512 1513 1514 1516 1517 1518 1519 1521 1522 1524 1525 1527 1528 1530 1531 1531 1533 1534 1534 1535 1535 1536 1537 1537 1537 1538 1538 1539 1539 1540 1541 1541 1541 1542 1542 1543 1543 1544 1544 1545 1545 1546 1546
1509 1510 1512 1513 1514 1515 1516 1518 1519 1521 1522 1523 1525 1527 1528 1528 1530 1531 1532 1532 1533 1534 1534 1535 1535 1536 1536 1537 1537 1537 1538 1538 1538 1539 1539 1540 1540 1541 1541 1542 1542 1543 1543
1506 1507 1508 1510 1511 1512 1513 1515 1516 1518 1519 1520 1522 1523 1525 1526 1527 1528 1528 1529 1530 1531 1531 1532 1532 1533 1533 1534 1534 1534 1535 1535 1535 1536 1536 1537 1537 1538 1538 1538 1539 1539 1539
1503 1504 1505 1506 1507 1509 1510 1511 1513 1514 1516 1517 1519 1520 1521 1523 1524 1525 1525 1525 1526 1528 1528 1529 1530 1530 1531 1531 1531 1531 1531 1531 1532 1532 1533 1533 1534 1534 1534 1535 1535 1536 1536
1499 1500 1501 1503 1504 1505 1506 1508 1509 1510 1512 1513 1515 1516 1518 1519 1521 1522 1522 1522 1523 1524 1525 1526 1526 1527 1527 1527 1527 1527 1527 1528 1528 1529 1529 1530 1530 1530 1531 1531 1531 1531 1532
1496 1497 1498 1499 1500 1501 1503 1504 1505 1507 1508 1509 1511 1512 1514 1515 1517 1518 1519 1520 1520 1520 1521 1521 1522 1523 1524 1524 1524 1524 1524 1524 1525 1525 1526 1526 1526 1526 1527 1527 1527 1527 1528
1492 1493 1494 1495 1496 1497 1498 1500 1501 1502 1504 1505 1507 1508 1510 1511 1513 1514 1515 1516 1518 1517 1516 1517 1518 1519 1520 1520 1521 1521 1521 1521 1521 1521 1522 1522 1522 1523 1523 1523 1523 1523 1523
1488 1489 1490 1491 1492 1493 1494 1495 1496 1498 1499 1501 1502 1504 1505 1507 1508 1510 1511 1512 1513 1514 1513 1513 1514 1515 1516 1517 1517 1517 1517 1517 1518 1518 1518 1518 1518 1519 1519 1519 1519 1519 1519
1483 1484 1485 1486 1487 1488 1489 1491 1492 1493 1494 1496 1497 1499 1500 1502 1503 1505 1506 1507 1508 1509 1509 1509 1510 1511 1512 1513 1513 1513 1514 1514 1514 1514 1515 1515 1515 1515 1515 1515 1516 1516 1516
1479 1480 1480 1481 1483 1484 1485 1486 1487 1489 1490 1491 1492 1494 1495 1497 1498 1500 1501 1502 1503 1504 1505 1505 1506 1507 1508 1509 1509 1509 1510 1510 1510 1511 1511 1511 1511 1511 1511 1511 1512 1512 1512
1475 1475 1476 1477 1478 1479 1480 1481 1483 1484 1485 1486 1487 1489 1490 1492 1493 1494 1496 1497 1498 1500 1501 1501 1501 1502 1503 1504 1505 1505 1506 1506 1506 1507 1507 1507 1507 1507 1507 1507 1508 1507 1507
1470 1471 1472 1473 1474 1475 1476 1477 1478 1479 1480 1481 1482 1484 1485 1486 1488 1489 1490 1492 1493 1494 1496 1496 1497 1498 1499 1500 1501 1501 1501 1502 1502 1503 1503 1503 1503 1503 1503 1503 1503 1503 1503
1466 1467 1467 1468 1469 1470 1471 1472 1473 1474 1475 1476 1477 1478 1480 1481 1482 1484 1485 1486 1488 1489 1490 1491 1492 1493 1494 1495 1496 1497 1497 1497 1497 1498 1498 1499 1499 1499 1499 1499 1499 1498 1498
1462 1462 1463 1463 1464 1465 1466 1467 1468 1469 1470 1471 1472 1473 1474 1475 1477 1479 1480 1481 1483 1484 1485 1486 1487 1487 1488 1490 1491 1492 1492 1493 1493 1494 1494 1494 1495 1494 1495 1495 1494 1494 1493
1457 1457 1458 1459 1459 1460 1462 1463 1464 1465 1465 1466 1467 1468 1469 1470 1472 1473 1475 1476 1477 1479 1480 1481 1482 1482 1484 1485 1487 1487 1488 1488 1488 1489 1490 1489 1490 1490 1490 1490 1490 1489 1488
1453 1453 1453 1454 1455 1456 1457 1458 1459 1460 1461 1462 1463 1463 1464 1465 1467 1468 1470 1470 1471 1473 1474 1476 1477 1478 1480 1481 1482 1483 1483 1484 1484 1485 1486 1485 1485 1485 1486 1485 1485 1484 1483
1449 1449 1449 1450 1450 1451 1452 1453 1454 1455 1456 1457 1458 1459 1460 1461 1462 1464 1465 1465 1466 1467 1469 1471 1472 1473 1475 1476 1478 1479 1479 1479 1479 1480 1481 1481 1481 1480 1480 1480 1480 1479 1479
1445 1445 1445 1445 1446 1446 1447 1449 1450 1450 1451 1452 1453 1454 1455 1456 1458 1459 1460 1461 1461 1462 1464 1466 1467 1468 1469 1471 1472 1473 1474 1475 1474 1475 1476 1477 1476 1476 1475 1475 1475 1474 1474